Regional Weather Roundup
Issued by NWS Grand Forks, ND

Home | Current Version | Previous Version | Text Only | Print | Product List | Glossary Off
Versions: 1 2 3 4 5 6 7 8 9 10 11 12 13 14 15 16 17 18 19 20 21 22 23 24 25 26 27 28 29 30 31 32 33 34 35 36 37 38 39 40 41 42 43 44 45 46 47 48 49 50

000
ASUS43 KFGF 251610
RWRFGF
PRAIRIE TO PINES  WEATHER ROUNDUP
NATIONAL WEATHER SERVICE EASTERN NORTH DAKOTA/GRAND FORKS ND
1100 AM CDT THU MAY 25 2017

 **SATELLITE DATA USED TO AUGMENT SKY COVER AT AUTOMATED STATIONS**
 *****  WEATHER ACROSS EASTERN NORTH DAKOTA  *****

CITY           SKY/WX    TMP DP  RH WIND       PRES   REMARKS
GRAND FORKS    PTSUNNY   67  48  50 S26G37    29.52F
GRAND FRKS AFB FAIR      64  46  53 S23G36    29.51F
DEVILS LAKE    PTSUNNY   58  47  66 S18       29.46F
FARGO          CLOUDY    64  48  56 SE21G31   29.53F
WAHPETON ARPT  FAIR      63  46  55 SE25G36   29.54F
$$

 ***** WEATHER ACROSS CENTRAL AND WESTERN NORTH DAKOTA  *****

CITY           SKY/WX    TMP DP  RH WIND       PRES   REMARKS
BISMARCK       PTSUNNY   62  49  62 CALM      29.43S
MINOT          FAIR      65  41  41 SW14      29.36S
JAMESTOWN      FAIR      63  46  54 S21G30    29.43F
MINOT AFB      FAIR      64  43  46 SW18G25   29.35S
GARRISON         N/A     63  43  48 W14G22    29.39S
WILLISTON      CLOUDY    57  42  57 SW15G26   29.36S
DICKINSON      FAIR      59  32  36 W23G35    29.41F
HETTINGER      FAIR      61  36  39 W18       29.47S
$$

 *****  OTHER AIRPORT OBSERVATIONS IN OUR AREA  *****

CITY           SKY/WX    TMP DP  RH WIND       PRES   REMARKS
WALHALLA       NOT AVBL
GRAFTON AIRPOR FAIR      61  48  63 SE26      29.54F
VALLEY CITY AR FAIR      63  48  59 SE20G33   29.48F
CANDO          NOT AVBL
CAVALIER APRT  FAIR      57  46  67 S17G26    29.51F
GWINNER        SUNNY     66  46  48 MISG      29.46F
SHEYENNE NWR     N/A     65  47  53 S21       29.95S
ROLLA          PTSUNNY   52  52 100 S21G28    29.42F
 ***** THE ABOVE OBSERVATIONS ARE NON NWS ARE NOT QUALITY
       CONTROLLED AND MAY MIS-REPORT RAIN FOR SNOW...
$$

  *****  WEATHER ACROSS NORTHERN MINNESOTA  *****

CITY           SKY/WX    TMP DP  RH WIND       PRES   REMARKS
FLAG ISLAND    FAIR      57  45  62 SE10      29.63S
WARROAD        FAIR      63  46  55 S20G26    29.62F
ROSEAU         FAIR      63  48  59 S16G25    29.61S
HALLOCK        FAIR      61  46  59 SE18      29.55S
THF RVR FALLS  FAIR      62  46  55 S18G24    29.59F
BAUDETTE       PTSUNNY   62  45  53 S17G23    29.64S
WASKISH        CLOUDY    63  46  55 SE12G21   29.64
CROOKSTON      FAIR      63  46  55 S22G30    29.56F
STEPHEN NDAWN    N/A     64  46  52 SE20        N/A
GREENBUSH NDAW   N/A     59  46  63 S18         N/A
$$
  *****  WEATHER ACROSS CENTRAL AND WEST MINNESOTA  *****

CITY           SKY/WX    TMP DP  RH WIND       PRES   REMARKS
FOSSTON        FAIR      61  46  59 S18       29.61S
BEMIDJI        PTSUNNY   58  46  63 SE15      29.63S
PARK RAPIDS    LGT RAIN  60  44  55 S16       29.62F
ELBOW LAKE     FAIR      62  50  65 S25       29.59F
WADENA         FAIR      61  46  59 SE21G28   29.62F
DETROIT LAKES  FAIR      61  46  59 S17G28    29.60S
MOORHEAD       FAIR      63  46  55 SE29      29.54F
FERGUS FALLS   FAIR      63  48  59 S21G32    29.56F
MORRIS MN      FAIR      63  52  67 SE24G35   29.57S
STAPLES        PTSUNNY   61  45  55 S14       29.64F
$$
  *****  WEATHER ELSEWHERE ACROSS MINNESOTA  *****

CITY           SKY/WX    TMP DP  RH WIND       PRES   REMARKS
DULUTH         PTSUNNY   54  46  74 E9        29.73S
INTRNTL FALLS  PTSUNNY   63  43  48 SE13G24   29.68F
ELY            PTSUNNY   59  43  55 SE13      29.72F
CLOQUET        FAIR      54  43  66 E9        29.71F
WHEATON        FAIR      64  48  55 SE25G32   29.56S
BRAINERD       FAIR      60  47  61 S13G18    29.66R
HIBBING        CLOUDY    56  44  64 SE16      29.70F
ALEXANDRIA     FAIR      62  47  57 SE20G30   29.63F
SAINT CLOUD    PTSUNNY   61  51  70 SE16      29.66R
MINNEAPOLIS    PTSUNNY   63  49  60 S12       29.68F
$$

  *****  WEATHER ACROSS SOUTH DAKOTA  *****

CITY           SKY/WX    TMP DP  RH WIND       PRES   REMARKS
SIOUX FALLS    FAIR      64  49  57 S22G43    29.55F
BROOKINGS      FAIR      63  49  60 S22G37    29.52F
WATERTOWN      FAIR      62  47  57 S26G40    29.48F
HURON          FAIR      66  48  52 S16G35    29.43F
SISSETON         N/A     65  51  60 S25G31    29.49F
ABERDEEN       FAIR      67  45  45 S23G32    29.43F
MITCHELL       FAIR      67  47  48 S23G36    29.46F
PIERRE         FAIR      58  46  64 NW13      29.42R
MOBRIDGE       FAIR      58  46  64 NW13G23   29.40R
RAPID CITY     FAIR      61  29  29 N15       29.53R
$$

  *****  SOME WEATHER IN NEARBY STATES *****

CITY           SKY/WX    TMP DP  RH WIND       PRES   REMARKS
GLASGOW MT     CLOUDY    56  43  61 W26       29.36R
GREAT FALLS MT PTSUNNY   50  37  61 NW23G35   29.70R
CHEYENNE WY    CLOUDY    59  43  55 N14G26    29.66R
SCOTTSBLUFF NE FAIR      65  46  50 W8        29.57R
OMAHA NE       FAIR      67  48  50 S21       29.64F
DES MOINES IA  FAIR      64  50  60 S5        29.71F
DAVENPORT IA   CLOUDY    59  52  77 NW9       29.70S
CHICAGO IL     CLOUDY    59  51  75 N12       29.62S
EAU CLAIRE WI  PTSUNNY   64  49  57 E5        29.70F
LA CROSSE WI   CLOUDY    62  52  69 NE6       29.70F
$$

  *****  SOME NATIONAL WEATHER *****

CITY           SKY/WX    TMP DP  RH WIND       PRES   REMARKS
LA GUARDIA NY  RAIN      57  56  96 NE13      29.62F FOG
RALEIGH NC     FAIR      73  58  59 SW16      29.57F
ATLANTA GA     PTSUNNY   67  52  58 W10G20    29.79R
NEW ORLEANS LA FAIR      76  52  43 W5        29.91R
OKLAHOMA CITY  FAIR      72  52  49 SE21      29.62F
ALBUQUERQUE NM PTSUNNY   74  25  16 W12       29.88S
SALT LAKE CITY PTSUNNY   64  29  26 W12       29.73R
LOS ANGELES CA CLOUDY    62  49  62 E6        29.87S
BOISE ID       FAIR      54  35  48 W13       29.77S
SEATTLE WA     FAIR      56  49  77 VRB5      29.92S
$$

*** WEATHER ACROSS MANITOBA...SASKATCHEWAN AND ONTARIO ***
                ***ONTARIO***

CITY           SKY/WX    TMP DP  RH WIND       PRES   REMARKS
GERALDTON      PTSUNNY   64  43  45 E14G21    29.79F
THUNDER BAY    MOSUNNY   63  45  51 E12       29.77F
SIOUX LOOKOUT  MOSUNNY   63  41  45 SE13G22   29.72F
TORONTO        LGT RAIN  54  52  94 E17G25    29.56S FOG
BIG TROUT LK   SUNNY     68  30  24 S8        29.75F
PICKLE LAKE    MOSUNNY   68  23  18 SE13G21   29.76F
DRYDEN         SUNNY     63  39  42 SE17      29.69F
KENORA         MOSUNNY   61  43  51 SE16G24   29.65F
$$
                *** MANITOBA***

CITY           SKY/WX    TMP DP  RH WIND       PRES   REMARKS
BRANDON        CLOUDY    52  48  87 S16G22    29.40S
DAUPHIN        CLOUDY    54  46  76 S13G22    29.38R
ISLAND LAKE    NOT AVBL
PILOT MOUND      N/A     52  46  82 SE22G29     N/A
THE PAS        LGT RAIN  52  50  93 SE12      29.39R FOG
THOMPSON       PTSUNNY   64  39  39 SE6       29.54F
WINNIPEG       CLOUDY    59  45  58 S21G26    29.54F
LYNN LAKE      HAZE      63  41  45 SE15      29.48S VSB 3/4
CHURCHILL      MOSUNNY   50  45  81 E9        29.66R
GILLAM         MOSUNNY   72  34  25 S12G18    29.62F
$$
                ***SASKATCHEWAN***

CITY           SKY/WX    TMP DP  RH WIND       PRES   REMARKS
ESTEVAN        PTSUNNY   55  45  67 SW23G30   29.30S
KINDERSLEY     LGT RAIN  48  46  93 N21G30    29.36R
LLOYDMINSTER   LGT RAIN  45  45 100 N18G36    29.46R
PRINCE ALBERT  PTSUNNY   59  48  67 NE7       29.27F
REGINA         LGT RAIN  48  46  93 SW6       29.20S
YORKTON          N/A     61  43  51 SE8       29.26F
N. BATTLEFORD  LGT RAIN  50  50 100 NW17      29.36R
LA RONGE       LGT RAIN  50  48  93 NE14      29.33S
SASKATOON      PTSUNNY   55  48  76 N20       29.26R
SWIFT CURRENT  LGT RAIN  45  43  93 N21G26    29.28R FOG
$$
NOTE: THESE ARE AUTOMATED STATIONS WITH LIMITED QUALITY CONTROL
      "FAIR" INDICATES FEW OR NO CLOUDS BELOW 12,000 FEET WITH NO
      SIGNIFICANT WEATHER AND/OR OBSTRUCTIONS TO VISIBILITY.
      SKY/WX - SKY CONDITION AND SIGNIFICANT WEATHER.
      TMP - AIR TEMPERATURE.    DP   - DEWPOINT TEMPERATURE.
      RH  - RELATIVE HUMIDITY.  PRES - PRESSURE.
      HX  - HEAT INDEX.         WCI  - WIND CHILL INDEX.
$




USA.gov is the U.S. government's official web portal to all federal, state and local government web resources and services.